1999 XS35 

Epoch 1999 Dec. 8.0 TT = JDT 2451520.5                  Nakano

M   0.61068              (2000.0)            P               Q

n   0.01276306     Peri.  333.16116     +0.90646872     -0.33904955

a  18.1342424      Node    49.02354     +0.42185289     +0.70051182

e   0.9477383      Incl.   19.47558     +0.01883074     +0.62795588

P  77.22           H   17.2           G   0.15           U   *

Residuals in seconds of arc 

991202 699  0.6+  0.2-    991206 652  0.8-  0.2-    991209 118  0.1+  0.0   

991202 699  0.1+  0.6+    991206 652  0.7+  1.1-    991209 118  0.3+  0.3+  

991202 699  0.7+  0.1-    991206 652  0.2+  1.7-    991209 713  1.2-  0.2+  

991202 557  0.0   0.0     991206 652  0.9+  1.3-    991209 713  1.1-  0.9+  

991202 557  0.0   0.1+    991206 652  0.1-  1.3-    991209 713  2.0-  0.7+  

991202 557  0.2-  0.1+    991206 652  0.4+  1.1-    991209 713  1.7-  0.8+  

991202 557  0.0   0.0     991206 652  0.1-  0.9-    991209 713  1.3-  0.9+  

991202 587  0.0   0.1-    991206 652  1.8-  0.9-    991209 713  0.9-  0.8+  

991202 587  0.1-  0.1-    991206 652  0.4-  0.2-    991209 675 (0.6-  2.3-) 

991202 587  0.3-  0.1+    991206 652  0.7-  0.0     991209 675 (1.1-  2.2-) 

991203 046  0.0   0.1-    991206 151  0.1-  0.9-    991209 675 (0.6-  2.2-) 

991203 046  0.0   0.0     991206 151  0.2+  0.4-    991209 713  1.7-  0.5+  

991203 046  0.0   0.1+    991206 151  0.1-  0.2-    991209 713  1.4-  0.3+  

991203 046  0.2+  0.1+    991206 151  0.9-  0.3+    991209 557  0.3+  0.1-  

991203 678  0.3-  0.3+    991206 610  0.2+  0.8-    991209 557  0.1+  0.3-  

991203 719  0.4-  0.6+    991206 610  0.2+  0.7-    991209 557  0.3+  0.3-  

991203 678  0.4-  0.0     991206 610  0.3+  0.6-    991210 118  0.8+  0.7-  

991203 678  0.6+  0.5+    991206 610  0.3+  0.5-    991210 118  0.9+  0.5-  

991203 719  0.7-  0.7+    991206 610  0.4+  0.4-    991210 118  0.8+  0.4-  

991203 711  0.2-  0.1-    991206 620  0.1+  0.2+    991210 355  0.6+  1.0+  

991203 711  0.1-  0.1+    991206 620  0.1-  0.3+    991210 355  0.3+  0.2+  

991203 711  0.4+  0.2-    991206 108  1.2-  1.1+    991210 355  0.1-  0.4+  

991203 658  0.5+  0.9+    991206 620  0.5-  0.4+    991211 557  0.3+  0.2+  

991203 658  0.3+  0.5+    991206 108  0.6-  0.2+    991211 557  0.2+  0.1+  

991203 658  0.1+  0.1+    991206 108  0.3-  0.0     991211 557  0.0   0.2+  

991203 151  0.6-  0.6+    991207 620  0.7-  0.5+    991211 557  0.1-  0.2-  

991203 151  0.4-  0.3-    991207 595  0.2+  0.1-    991211 652 (3.6-  1.8-) 

991203 151  0.6-  0.1-    991207 595  0.3+  0.2+    991211 540  0.4+  0.1+  

991203 151  0.3-  0.0     991207 595  0.4+  0.3+    991211 540  0.3+  0.2+  

991203 151  0.7+  0.3-    991207 713  1.6+  0.6+    991211 540  0.1-  0.3+  

991203 151  1.1+  0.3-    991207 713  0.1+  0.1+    991211 540  0.0   0.2+  

991204 946  1.0-  0.7-    991207 713  0.4+  1.1+    991217 670  0.9-  0.2-  

991204 946  0.9-  0.0     991207 713  0.4-  0.1+    991217 670  0.2-  0.2+  

991204 946  0.4+  0.6-    991207 713  0.1-  0.1-    991217 670  0.3-  1.0+  

991204 652  0.2+  0.6+    991207 658  0.2+  0.2+    991217 610  0.0   0.7-  

991204 652  1.1+  0.9-    991207 658  0.1-  0.7+    991217 610  0.1+  0.4-  

991204 652 (3.6-  2.7-)   991207 658  0.2+  0.5+    991217 610  0.1+  0.3-  

991204 678  0.1-  0.2-    991207 360  0.3+  0.2+    991217 610  0.2+  0.1+  

991204 652  0.5-  0.1+    991207 360  0.2+  0.0     991217 610  0.2+  0.3+  

991204 678  0.5-  0.1-    991207 360  0.1+  0.0     991219 704  0.1+  0.3-  

991205 719 (2.8+  1.0+)   991207 402  0.1-  0.1+    991219 704  0.2+  0.1-  

991205 658  0.1-  0.1-    991207 402  0.1+  0.1-    991219 704  0.0   0.5-  

991205 658  0.6+  0.2-    991207 402  0.3-  0.0     991219 704  0.7+  0.4+  

991205 658  0.1+  0.5+    991207 402  0.2-  0.1+    991219 704  0.1+  0.4+  

991205 046  0.2+  0.2+    991207 108  0.5+  0.4-    991220 704  0.3+  0.1+  

991206 046  0.1+  0.1+    991207 108  0.7-  0.9-    991220 704  0.8+  0.2+  

991206 046  0.1+  0.2+    991207 108  1.7-  0.8-    991220 704  0.1+  0.2+  

991206 046  0.2+  0.1+    991207 610  0.2+  0.6-    991220 704  0.7+  0.1+  

991206 726  0.1+  0.6+    991207 595  0.3+  0.6+    991222 118  0.1+  0.1-  

991206 726  0.4+  0.4-    991207 610  0.3+  0.6-    991222 118  0.1-  0.0   

991206 726  0.5+  0.1-    991207 595  0.4+  0.1-    991222 118  0.1+  0.3-  

991206 726  0.6+  0.9-    991207 610  0.3+  0.5-    991227 402  0.1+  0.2+  

991206 726  0.9+  0.4-    991207 610  0.5+  0.4-    991227 402  0.4-  0.3+  

991206 726  0.2+  0.4+    991207 595  0.6+  0.7+    991227 402  0.2+  0.3+  

991206 726  0.0   0.6+    991207 610  0.6+  0.3-    991228 704  0.3+  0.2+  

991206 713  0.1+  0.2+    991208 468  0.6+  0.6-    991228 704  0.6+  0.2+  

991206 713  1.3+  0.3-    991208 468  0.6+  0.4-    991228 704  0.0   0.2-  

991206 557  0.1+  0.1+    991208 468  0.1+  0.2+    991228 704  0.1+  0.5-  

991206 557  0.0   0.1+    991208 294  0.7+  1.1-    991228 704  0.2+  0.2-  

991206 557  0.1+  0.0     991208 294  0.5-  0.0     991229 402  0.2-  0.7-  

991206 652  0.8-  1.2+    991208 294  0.5-  0.9+    991229 402  0.6-  0.3-  

991206 652  1.0-  0.1+    991208 557  0.0   0.1-    991229 402  0.7-  0.7-  

991206 652  0.1-  1.1+    991208 557  0.1+  0.1-    991230 046  0.4-  0.2+  

991206 652  1.0+  0.1+    991209 118  0.4-  0.1-    991230 046  0.3-  0.7+  

 

NAKANO

         **** Don't distribute anyone except personal use only ****

                (C) Copyright 1999 OAA/ComputingSection

write mail from CFAD0::NAKANO on 1999-12-31 22:22:03(JST).

 



1999 XS35 

Epoch 1999 Dec. 8.0 TT = JDT 2451520.5                  Nakano

M   0.60842              (2000.0)            P               Q

n   0.01271620     Peri.  333.16043     +0.90646543     -0.33904303

a  18.1787651      Node    49.02423     +0.42186052     +0.70050045

e   0.9478667      Incl.   19.47703     +0.01881819     +0.62797209

P  77.51           H   17.2           G   0.15           U   *

Residuals in seconds of arc 

991202 699  0.5+  0.2-    991206 652  1.0-  0.2+    991208 294  0.7+  1.1-  

991202 699  0.1+  0.5+    991206 652  0.1-  1.1+    991208 294  0.5-  0.0   

991202 699  0.6+  0.2-    991206 652  1.0+  0.1+    991208 294  0.5-  0.9+  

991202 557  0.1-  0.1-    991206 652  0.8-  0.2-    991208 557  0.0   0.1-  

991202 557  0.0   0.1+    991206 652  0.7+  1.0-    991208 557  0.1+  0.1-  

991202 557  0.2-  0.1+    991206 652  0.2+  1.6-    991209 118  0.4-  0.0   

991202 557  0.1-  0.0     991206 652  1.0+  1.3-    991209 118  0.1+  0.1+  

991202 587  0.1-  0.1-    991206 652  0.1-  1.3-    991209 118  0.3+  0.3+  

991202 587  0.1-  0.1-    991206 652  0.4+  1.1-    991209 713  1.1-  0.2+  

991202 587  0.3-  0.1+    991206 652  0.1-  0.9-    991209 713  1.1-  0.9+  

991203 046  0.0   0.1-    991206 652  1.8-  0.8-    991209 713  2.0-  0.7+  

991203 046  0.0   0.0     991206 652  0.3-  0.2-    991209 713  1.7-  0.8+  

991203 046  0.0   0.1+    991206 652  0.7-  0.0     991209 713  1.2-  0.9+  

991203 046  0.1+  0.1+    991206 151  0.1-  0.9-    991209 713  0.9-  0.9+  

991203 678  0.4-  0.3+    991206 151  0.2+  0.3-    991209 675 (0.6-  2.2-) 

991203 719  0.4-  0.6+    991206 151  0.1-  0.2-    991209 675 (1.0-  2.2-) 

991203 678  0.4-  0.0     991206 151  0.9-  0.3+    991209 675  0.5-  2.1-  

991203 678  0.6+  0.5+    991206 610  0.3+  0.8-    991209 713  1.7-  0.6+  

991203 719  0.7-  0.6+    991206 610  0.3+  0.7-    991209 713  1.3-  0.4+  

991203 711  0.2-  0.1-    991206 610  0.3+  0.6-    991209 557  0.3+  0.1-  

991203 711  0.2-  0.1+    991206 610  0.4+  0.4-    991209 557  0.1+  0.2-  

991203 711  0.3+  0.2-    991206 610  0.4+  0.4-    991209 557  0.3+  0.3-  

991203 658  0.5+  0.9+    991206 620  0.1+  0.2+    991210 118  0.9+  0.7-  

991203 658  0.3+  0.5+    991206 620  0.1-  0.3+    991210 118  0.9+  0.5-  

991203 658  0.1+  0.1+    991206 108  1.2-  1.1+    991210 118  0.8+  0.3-  

991203 151  0.6-  0.6+    991206 620  0.5-  0.4+    991210 355  0.6+  1.0+  

991203 151  0.4-  0.3-    991206 108  0.6-  0.3+    991210 355  0.3+  0.3+  

991203 151  0.6-  0.1-    991206 108  0.3-  0.0     991210 355  0.1-  0.4+  

991203 151  0.3-  0.0     991207 620  0.6-  0.5+    991211 557  0.3+  0.2+  

991203 151  0.7+  0.3-    991207 595  0.2+  0.0     991211 557  0.2+  0.1+  

991203 151  1.1+  0.3-    991207 595  0.3+  0.2+    991211 557  0.1+  0.2+  

991204 946  1.1-  0.7-    991207 595  0.4+  0.3+    991211 557  0.0   0.1-  

991204 946  0.9-  0.0     991207 713  1.7+  0.7+    991211 652 (3.6-  1.8-) 

991204 946  0.4+  0.7-    991207 713  0.1+  0.1+    991211 540  0.4+  0.2+  

991204 652  0.2+  0.6+    991207 713  0.4+  1.1+    991211 540  0.3+  0.2+  

991204 652  1.1+  0.9-    991207 713  0.4-  0.2+    991211 540  0.0   0.3+  

991204 652 (3.6-  2.7-)   991207 713  0.1-  0.1-    991211 540  0.1+  0.2+  

991204 678  0.1-  0.2-    991207 658  0.3+  0.2+    991217 670  0.9-  0.2-  

991204 652  0.5-  0.1+    991207 658  0.1-  0.7+    991217 670  0.2-  0.2+  

991204 678  0.5-  0.1-    991207 658  0.2+  0.5+    991217 670  0.4-  1.0+  

991205 719 (2.8+  1.0+)   991207 360  0.3+  0.2+    991217 610  0.0   0.7-  

991205 658  0.1-  0.1-    991207 360  0.2+  0.0     991217 610  0.0   0.4-  

991205 658  0.6+  0.2-    991207 360  0.1+  0.0     991217 610  0.0   0.3-  

991205 658  0.1+  0.5+    991207 402  0.1-  0.1+    991217 610  0.1+  0.1+  

991205 046  0.2+  0.2+    991207 402  0.1+  0.0     991217 610  0.2+  0.3+  

991206 046  0.1+  0.2+    991207 402  0.2-  0.0     991219 704  0.0   0.3-  

991206 046  0.1+  0.2+    991207 402  0.1-  0.1+    991219 704  0.1+  0.2-  

991206 046  0.2+  0.1+    991207 108  0.6+  0.3-    991219 704  0.1-  0.5-  

991206 726  0.2+  0.6+    991207 108  0.7-  0.9-    991219 704  0.7+  0.4+  

991206 726  0.4+  0.4-    991207 108  1.7-  0.8-    991219 704  0.0   0.4+  

